Regional Weather Roundup
Issued by NWS

Current Version | Previous Version | Text Only | Print | Product List | Glossary On
Versions: 1 2 3 4 5 6 7 8 9 10 11 12 13 14 15 16 17 18 19 20 21 22 23 24 25 26 27 28 29 30 31 32 33 34 35 36 37 38 39 40 41 42 43 44 45 46 47 48 49 50
000
ASCA42 TJSJ 311011
RWRPR
PUERTO RICO/U.S. VIRGIN ISLANDS HOURLY WEATHER ROUNDUP
NATIONAL WEATHER SERVICE SAN JUAN PR
600 AM AST SUN AUG 31 2014

PRZ001-004-311100-
PUERTO RICO

CITY           SKY/WX    TMP DP  RH WIND       PRES   REMARKS
SAN JUAN LMM   PTCLDY    79  73  83 CALM      30.02R
CEIBA          CLEAR     81  73  78 E6        30.05R
$$

PRZ006-007-311100-
U.S. VIRGIN ISLANDS

CITY           SKY/WX    TMP DP  RH WIND       PRES   REMARKS
$$

HOURLY WEATHER ROUNDUP FOR THE NEWS MEDIA

CITY           SKY/WX    TMP DP  RH WIND       PRES   REMARKS
MIAMI          MOCLDY    82  74  76 N3        30.08S
ORLANDO        CLEAR     79  75  87 N5        30.12S
NEW YORK       MOCLDY    73  68  84 S8        30.12F
NEWARK         CLOUDY    73  66  78 S8        30.11F
CHICAGO        MOCLDY    71  66  84 SW5       29.93R
HARTFORD       CLOUDY    70  65  84 SW9       30.12S
BOSTON         CLOUDY    70  64  81 SW15      30.08S
DALLAS         CLEAR     77  71  82 S8        29.93S
PHILADELPHIA   CLOUDY    73  68  84 SE5       30.11F


USA.gov is the U.S. government's official web portal to all federal, state and local government web resources and services.